5 kleines Gehege Affenhaus Messungen

Zurück zum Überblick

Zeitpunkt Temperatur Luftfeuchte
15.10.2019 12:05:50 24,7 C 53,0%
15.10.2019 11:58:46 24,4 C 53,0%
15.10.2019 11:51:45 24,1 C 53,0%
15.10.2019 11:44:43 24,0 C 53,0%
15.10.2019 11:37:42 23,7 C 53,0%
15.10.2019 11:30:40 23,6 C 53,0%
15.10.2019 11:23:37 23,4 C 53,0%
15.10.2019 11:16:36 23,4 C 54,0%
15.10.2019 11:09:35 23,1 C 53,0%
15.10.2019 11:02:32 23,1 C 53,0%
15.10.2019 10:55:28 23,0 C 53,0%
15.10.2019 10:48:27 23,0 C 53,0%
15.10.2019 10:41:26 23,0 C 53,0%
15.10.2019 10:34:24 23,0 C 53,0%
15.10.2019 10:27:22 23,0 C 52,0%
15.10.2019 10:20:21 23,0 C 52,0%
15.10.2019 10:13:18 22,9 C 52,0%
15.10.2019 10:06:15 23,0 C 52,0%
15.10.2019 09:59:14 23,0 C 52,0%
15.10.2019 09:52:11 23,0 C 52,0%
15.10.2019 09:45:08 23,0 C 52,0%
15.10.2019 09:38:07 23,0 C 52,0%
15.10.2019 09:31:06 23,0 C 52,0%
15.10.2019 09:24:04 23,0 C 52,0%
15.10.2019 09:17:01 23,0 C 52,0%
15.10.2019 09:09:59 23,0 C 52,0%
15.10.2019 09:02:57 23,0 C 52,0%
15.10.2019 08:55:56 23,0 C 52,0%
15.10.2019 08:48:53 23,1 C 52,0%
15.10.2019 08:41:51 23,1 C 52,0%
15.10.2019 08:34:49 23,1 C 52,0%
15.10.2019 08:27:49 23,1 C 52,0%
15.10.2019 08:20:46 23,1 C 51,0%
15.10.2019 08:13:45 23,1 C 51,0%
15.10.2019 08:06:44 23,1 C 51,0%
15.10.2019 07:59:42 23,1 C 51,0%
15.10.2019 07:52:41 23,2 C 51,0%
15.10.2019 07:45:38 23,2 C 51,0%
15.10.2019 07:38:36 23,2 C 51,0%
15.10.2019 07:31:34 23,2 C 51,0%
15.10.2019 07:24:32 23,3 C 51,0%
15.10.2019 07:17:31 23,3 C 51,0%
15.10.2019 07:10:30 23,4 C 51,0%
15.10.2019 07:03:27 23,4 C 51,0%
15.10.2019 06:56:25 23,4 C 51,0%
15.10.2019 06:49:24 23,4 C 50,0%
15.10.2019 06:42:21 23,5 C 50,0%
15.10.2019 06:35:19 23,5 C 50,0%
15.10.2019 06:28:17 23,6 C 50,0%
15.10.2019 06:21:14 23,6 C 50,0%
15.10.2019 06:14:13 23,6 C 50,0%
15.10.2019 06:07:12 23,7 C 50,0%
15.10.2019 06:00:11 23,7 C 50,0%
15.10.2019 05:53:07 23,7 C 50,0%
15.10.2019 05:46:04 23,7 C 50,0%
15.10.2019 05:39:02 23,8 C 50,0%
15.10.2019 05:31:59 23,8 C 50,0%
15.10.2019 05:24:57 23,9 C 50,0%
15.10.2019 05:17:56 24,0 C 49,0%
15.10.2019 05:10:52 24,0 C 49,0%
15.10.2019 05:03:50 24,0 C 49,0%
15.10.2019 04:56:49 24,0 C 49,0%
15.10.2019 04:49:47 24,0 C 49,0%
15.10.2019 04:42:44 24,1 C 49,0%
15.10.2019 04:35:42 24,1 C 49,0%
15.10.2019 04:28:39 24,2 C 49,0%
15.10.2019 04:21:38 24,2 C 49,0%
15.10.2019 04:14:37 24,3 C 49,0%
15.10.2019 04:07:36 24,3 C 49,0%
15.10.2019 04:00:35 24,3 C 49,0%
15.10.2019 03:53:32 24,4 C 49,0%
15.10.2019 03:46:32 24,4 C 48,0%
15.10.2019 03:39:28 24,5 C 48,0%
15.10.2019 03:32:27 24,5 C 48,0%
15.10.2019 03:25:25 24,6 C 48,0%
15.10.2019 03:18:23 24,6 C 48,0%
15.10.2019 03:11:22 24,7 C 48,0%
15.10.2019 03:04:19 24,7 C 48,0%
15.10.2019 02:57:17 24,8 C 48,0%
15.10.2019 02:50:14 24,9 C 48,0%
15.10.2019 02:43:11 24,9 C 48,0%
15.10.2019 02:36:10 24,9 C 48,0%
15.10.2019 02:29:08 25,0 C 48,0%
15.10.2019 02:22:05 25,1 C 48,0%
15.10.2019 02:15:04 25,2 C 48,0%
15.10.2019 02:08:01 25,2 C 48,0%
15.10.2019 02:01:00 25,2 C 48,0%
15.10.2019 01:53:57 25,3 C 47,0%
15.10.2019 01:46:56 25,4 C 47,0%
15.10.2019 01:39:54 25,5 C 47,0%
15.10.2019 01:32:52 25,5 C 47,0%
15.10.2019 01:25:51 25,6 C 47,0%
15.10.2019 01:18:49 25,7 C 47,0%
15.10.2019 01:11:46 25,8 C 47,0%
15.10.2019 01:04:43 25,8 C 47,0%
15.10.2019 00:57:42 25,9 C 46,0%
15.10.2019 00:50:40 26,0 C 46,0%
15.10.2019 00:43:37 26,1 C 46,0%
15.10.2019 00:36:34 26,2 C 46,0%
15.10.2019 00:29:31 26,3 C 46,0%
15.10.2019 00:22:29 26,4 C 46,0%
15.10.2019 00:15:27 26,5 C 46,0%
15.10.2019 00:08:25 26,6 C 46,0%
15.10.2019 00:01:24 26,7 C 46,0%